GFSNW_prec_precacc_177.txt.gz
Total_Precipitation_Accumulation
1.97 1.98 1.77 1.64 1.93 1.83 2.28 2.22 2.01 1.92 2.35 2.56 1.80 1.08 0.78 0.47 0.16 0.17 0.14 0.12 0.03 0.01 0.02 0.04 0.13 0.12 0.09 0.03 0.11 0.32 0.41 0.80 0.81 0.65 0.18 0.13 0.25 0.27 0.20 0.73 0.54 0.41 0.41 0.85
1.99 2.34 2.04 1.30 1.77 1.92 2.01 2.00 1.85 2.76 1.57 1.10 0.73 0.47 0.44 0.30 0.10 0.15 0.19 0.12 0.01 0.01 0.03 0.03 0.02 0.01 0.01 0.00 0.02 0.20 0.44 1.01 0.82 0.70 0.48 0.49 0.69 0.33 0.37 0.63 1.00 0.77 0.43 0.54
1.73 2.11 2.27 1.56 1.54 1.66 1.89 1.87 1.90 3.74 2.47 0.61 0.18 0.42 0.46 0.30 0.06 0.08 0.14 0.12 0.03 0.05 0.03 0.01 0.01 0.00 0.00 0.00 0.00 0.16 0.72 0.81 0.86 0.71 0.63 0.88 0.72 0.34 0.53 1.08 1.15 0.37 0.18 0.10
1.57 1.83 2.38 2.62 2.09 1.93 1.75 1.30 0.79 0.85 0.98 0.50 0.11 0.36 0.34 0.37 0.23 0.13 0.17 0.12 0.04 0.07 0.03 0.01 0.01 0.00 0.00 0.00 0.00 0.16 0.66 1.15 1.28 0.54 0.32 0.69 0.60 0.31 0.43 0.98 0.55 0.51 0.16 0.06
1.89 1.78 1.88 2.35 2.05 2.04 1.37 0.77 0.58 0.12 0.07 0.06 0.16 0.23 0.28 0.34 0.34 0.28 0.20 0.15 0.04 0.04 0.05 0.01 0.01 0.00 0.00 0.01 0.01 0.15 0.55 0.95 0.81 0.34 0.20 0.40 0.47 0.23 0.35 0.56 0.41 0.30 0.12 0.11
1.81 1.62 1.79 1.97 1.61 1.90 1.41 0.69 0.50 0.15 0.12 0.13 0.10 0.08 0.12 0.23 0.37 0.24 0.09 0.09 0.11 0.07 0.03 0.01 0.00 0.00 0.00 0.00 0.01 0.07 0.36 0.63 0.82 0.65 0.41 0.55 0.52 0.26 0.31 0.41 0.35 0.24 0.14 0.12
1.44 1.47 1.60 1.70 1.62 1.58 1.23 0.70 0.67 0.32 0.12 0.05 0.02 0.02 0.11 0.23 0.27 0.26 0.14 0.08 0.12 0.06 0.06 0.04 0.02 0.02 0.00 0.01 0.01 0.01 0.10 0.32 0.66 0.76 0.67 0.68 0.49 0.29 0.21 0.23 0.23 0.17 0.16 0.11
1.10 1.17 1.29 1.34 1.30 0.91 0.70 0.59 0.60 0.38 0.10 0.03 0.03 0.03 0.13 0.22 0.21 0.31 0.27 0.09 0.03 0.05 0.07 0.16 0.13 0.11 0.11 0.02 0.02 0.02 0.05 0.10 0.31 0.27 0.28 0.20 0.08 0.16 0.17 0.23 0.16 0.08 0.12 0.05
1.23 1.06 0.93 1.02 0.86 0.75 0.47 0.47 0.62 0.55 0.22 0.05 0.02 0.03 0.15 0.24 0.20 0.29 0.24 0.11 0.09 0.15 0.22 0.36 0.23 0.12 0.10 0.04 0.04 0.03 0.04 0.06 0.21 0.18 0.25 0.11 0.04 0.02 0.01 0.02 0.06 0.01 0.01 0.01
1.40 1.25 0.97 1.03 0.74 0.52 0.38 0.41 0.48 0.47 0.21 0.03 0.01 0.02 0.15 0.33 0.21 0.27 0.35 0.24 0.21 0.22 0.36 0.38 0.22 0.07 0.01 0.01 0.02 0.06 0.16 0.16 0.28 0.22 0.26 0.01 0.00 0.00 0.00 0.04 0.02 0.00 0.03 0.03
1.23 1.24 0.92 0.87 0.58 0.47 0.47 0.27 0.32 0.47 0.25 0.01 0.00 0.00 0.08 0.38 0.35 0.27 0.34 0.44 0.34 0.43 0.46 0.32 0.14 0.04 0.01 0.00 0.00 0.00 0.04 0.08 0.10 0.15 0.20 0.02 0.00 0.00 0.01 0.01 0.00 0.00 0.01 0.04
0.94 0.78 0.68 0.66 0.54 0.48 0.60 0.39 0.24 0.36 0.26 0.04 0.00 0.00 0.01 0.20 0.33 0.37 0.34 0.39 0.31 0.40 0.40 0.26 0.11 0.04 0.02 0.01 0.01 0.00 0.00 0.01 0.00 0.00 0.00 0.00 0.00 0.00 0.00 0.00 0.00 0.00 0.00 0.00
0.76 0.59 0.51 0.56 0.51 0.47 0.66 0.40 0.27 0.34 0.31 0.08 0.02 0.02 0.00 0.08 0.20 0.35 0.35 0.35 0.30 0.40 0.31 0.40 0.23 0.12 0.02 0.01 0.00 0.00 0.00 0.00 0.00 0.00 0.00 0.00 0.00 0.00 0.00 0.00 0.00 0.00 0.00 0.00
0.76 0.55 0.50 0.39 0.43 0.54 0.68 0.26 0.18 0.32 0.48 0.31 0.07 0.03 0.01 0.04 0.19 0.29 0.32 0.44 0.36 0.37 0.49 0.52 0.51 0.29 0.06 0.03 0.00 0.00 0.00 0.00 0.00 0.00 0.00 0.00 0.00 0.00 0.00 0.00 0.00 0.00 0.00 0.00
0.64 0.51 0.55 0.52 0.56 0.69 0.51 0.27 0.27 0.31 0.58 0.62 0.29 0.09 0.02 0.01 0.16 0.33 0.37 0.50 0.71 0.66 0.79 0.73 0.45 0.26 0.14 0.10 0.08 0.05 0.00 0.00 0.00 0.00 0.00 0.00 0.01 0.00 0.00 0.00 0.01 0.00 0.00 0.00
0.52 0.51 0.65 0.70 0.66 1.01 0.82 1.12 0.68 0.41 0.60 1.42 0.93 0.38 0.15 0.07 0.16 0.37 0.52 0.51 0.57 0.87 0.92 0.73 0.44 0.21 0.35 0.68 0.22 0.00 0.00 0.00 0.00 0.01 0.00 0.01 0.00 0.00 0.00 0.00 0.00 0.00 0.00 0.00
0.60 0.64 0.67 0.62 0.78 0.86 0.84 0.82 0.62 0.66 0.85 1.56 1.14 0.90 0.42 0.21 0.31 0.58 0.66 0.67 0.73 0.81 1.15 0.76 0.43 0.29 0.68 0.97 0.29 0.01 0.00 0.00 0.00 0.00 0.01 0.00 0.00 0.00 0.00 0.00 0.00 0.00 0.00 0.00
0.66 0.70 0.71 0.84 1.23 1.25 0.89 0.43 0.60 0.80 1.21 1.31 1.26 1.02 0.56 0.44 0.46 0.70 0.75 0.68 0.70 0.80 0.96 0.62 0.34 0.41 0.73 0.64 0.03 0.00 0.01 0.01 0.01 0.01 0.01 0.00 0.01 0.01 0.02 0.02 0.01 0.00 0.00 0.00
0.89 1.15 1.38 1.61 1.39 0.76 0.47 0.53 0.75 0.90 1.30 1.59 0.96 0.47 0.46 0.50 0.35 0.51 0.50 0.66 0.78 0.71 0.53 0.54 0.50 0.40 0.40 0.14 0.02 0.00 0.00 0.00 0.00 0.00 0.00 0.00 0.00 0.00 0.00 0.01 0.01 0.02 0.04 0.05
1.69 1.91 1.80 1.54 0.81 0.64 1.10 1.75 2.01 2.17 1.54 1.19 0.70 0.30 0.22 0.45 0.32 0.47 0.60 0.49 0.49 0.47 0.21 0.32 0.61 0.29 0.09 0.06 0.01 0.00 0.00 0.00 0.01 0.01 0.02 0.01 0.02 0.02 0.01 0.02 0.01 0.02 0.03 0.05
2.51 2.16 1.56 1.04 0.94 1.58 2.27 2.38 1.72 1.18 0.77 0.35 0.21 0.27 0.23 0.26 0.36 0.55 0.59 0.74 0.48 0.44 0.14 0.30 0.41 0.19 0.09 0.06 0.03 0.01 0.00 0.01 0.01 0.01 0.03 0.05 0.05 0.05 0.04 0.05 0.06 0.05 0.04 0.05
2.09 1.67 1.73 2.26 2.53 2.78 2.43 1.73 0.75 0.44 0.13 0.16 0.17 0.14 0.25 0.27 0.30 0.56 0.86 0.73 0.72 0.38 0.26 0.55 0.16 0.03 0.01 0.02 0.05 0.09 0.07 0.05 0.04 0.03 0.03 0.07 0.16 0.20 0.19 0.16 0.13 0.10 0.08 0.05
2.57 2.77 3.10 2.88 2.54 2.24 1.41 0.57 0.26 0.20 0.13 0.19 0.16 0.13 0.16 0.23 0.39 0.84 1.00 0.93 0.49 0.25 0.38 0.17 0.01 0.02 0.06 0.11 0.06 0.02 0.03 0.04 0.14 0.24 0.30 0.25 0.20 0.15 0.18 0.27 0.23 0.19 0.13 0.07
3.62 3.52 3.16 1.86 1.34 0.50 0.18 0.11 0.11 0.07 0.08 0.10 0.13 0.21 0.19 0.23 0.59 0.69 0.76 0.51 0.51 0.59 0.28 0.06 0.06 0.09 0.13 0.13 0.12 0.08 0.04 0.02 0.08 0.10 0.16 0.21 0.23 0.24 0.21 0.21 0.22 0.20 0.20 0.20
3.35 2.89 1.76 0.90 0.32 0.11 0.12 0.12 0.07 0.08 0.10 0.14 0.19 0.38 0.44 0.57 0.89 0.66 0.61 0.63 0.34 0.07 0.02 0.06 0.10 0.19 0.29 0.30 0.25 0.16 0.10 0.06 0.06 0.05 0.12 0.19 0.06 0.04 0.12 0.22 0.24 0.16 0.12 0.18
3.40 2.56 1.25 0.39 0.09 0.05 0.06 0.08 0.09 0.09 0.15 0.24 0.47 0.74 0.80 0.76 0.70 0.73 0.47 0.43 0.15 0.11 0.20 0.28 0.30 0.44 0.48 0.41 0.25 0.12 0.07 0.04 0.07 0.19 0.33 0.20 0.04 0.01 0.02 0.06 0.19 0.18 0.17 0.09
3.63 1.53 0.47 0.17 0.05 0.04 0.06 0.05 0.06 0.12 0.36 0.54 0.92 1.17 0.52 0.46 0.65 0.24 0.09 0.11 0.08 0.20 0.31 0.33 0.34 0.33 0.22 0.10 0.04 0.01 0.02 0.04 0.03 0.06 0.16 0.18 0.12 0.04 0.02 0.03 0.02 0.02 0.03 0.07

GFSNW_prec_precacc_183.txt.gz
Total_Precipitation_Accumulation
1.97 1.98 1.77 1.64 1.93 1.83 2.28 2.22 2.01 1.92 2.35 2.56 1.80 1.08 0.78 0.47 0.16 0.17 0.14 0.12 0.03 0.01 0.02 0.04 0.13 0.12 0.09 0.03 0.11 0.32 0.41 0.80 0.81 0.65 0.18 0.13 0.25 0.27 0.20 0.73 0.54 0.41 0.41 0.85
1.99 2.34 2.04 1.30 1.77 1.92 2.01 2.00 1.85 2.76 1.57 1.10 0.73 0.47 0.44 0.30 0.10 0.15 0.19 0.12 0.01 0.01 0.03 0.03 0.02 0.01 0.01 0.00 0.02 0.20 0.44 1.01 0.82 0.70 0.48 0.49 0.69 0.33 0.37 0.63 1.00 0.77 0.43 0.54
1.73 2.11 2.27 1.56 1.54 1.66 1.89 1.87 1.90 3.74 2.47 0.61 0.18 0.42 0.46 0.30 0.06 0.08 0.14 0.12 0.03 0.05 0.03 0.01 0.01 0.00 0.00 0.00 0.00 0.16 0.72 0.81 0.86 0.71 0.63 0.88 0.72 0.34 0.53 1.08 1.15 0.37 0.18 0.10
1.57 1.83 2.38 2.62 2.09 1.93 1.75 1.30 0.79 0.85 0.98 0.50 0.11 0.36 0.34 0.37 0.23 0.13 0.17 0.12 0.04 0.07 0.03 0.01 0.01 0.00 0.00 0.00 0.00 0.16 0.66 1.15 1.28 0.54 0.32 0.69 0.60 0.31 0.43 0.98 0.55 0.51 0.16 0.06
1.89 1.78 1.88 2.35 2.05 2.04 1.37 0.77 0.58 0.12 0.07 0.06 0.16 0.23 0.28 0.34 0.34 0.28 0.20 0.15 0.04 0.04 0.05 0.01 0.01 0.00 0.00 0.01 0.01 0.15 0.55 0.95 0.81 0.34 0.20 0.40 0.47 0.23 0.35 0.56 0.41 0.30 0.12 0.11
1.81 1.62 1.79 1.97 1.61 1.90 1.41 0.69 0.50 0.15 0.12 0.13 0.10 0.08 0.12 0.23 0.37 0.24 0.09 0.09 0.11 0.07 0.03 0.01 0.00 0.00 0.00 0.00 0.01 0.07 0.36 0.63 0.82 0.65 0.41 0.55 0.52 0.26 0.31 0.41 0.35 0.24 0.14 0.12
1.44 1.47 1.60 1.70 1.62 1.58 1.23 0.70 0.67 0.32 0.12 0.05 0.02 0.02 0.11 0.23 0.27 0.26 0.14 0.08 0.12 0.06 0.06 0.04 0.02 0.02 0.00 0.01 0.01 0.01 0.10 0.32 0.66 0.76 0.67 0.68 0.49 0.29 0.21 0.23 0.23 0.17 0.16 0.11
1.11 1.17 1.29 1.34 1.30 0.91 0.70 0.59 0.60 0.38 0.10 0.03 0.03 0.03 0.13 0.22 0.21 0.31 0.27 0.09 0.03 0.05 0.07 0.16 0.13 0.11 0.11 0.02 0.02 0.02 0.05 0.10 0.31 0.27 0.28 0.20 0.08 0.16 0.17 0.23 0.16 0.08 0.12 0.05
1.25 1.06 0.93 1.02 0.86 0.75 0.47 0.47 0.62 0.55 0.22 0.05 0.02 0.03 0.15 0.24 0.20 0.29 0.24 0.11 0.09 0.15 0.22 0.36 0.23 0.12 0.10 0.04 0.04 0.03 0.04 0.06 0.21 0.18 0.25 0.11 0.04 0.02 0.01 0.02 0.06 0.01 0.01 0.01
1.42 1.27 0.97 1.03 0.74 0.52 0.38 0.41 0.48 0.47 0.21 0.03 0.01 0.02 0.15 0.33 0.21 0.27 0.35 0.24 0.21 0.22 0.36 0.38 0.22 0.07 0.01 0.01 0.02 0.06 0.16 0.16 0.28 0.22 0.26 0.01 0.00 0.00 0.00 0.04 0.02 0.00 0.03 0.03
1.26 1.26 0.94 0.88 0.59 0.47 0.47 0.27 0.32 0.47 0.25 0.01 0.00 0.00 0.08 0.38 0.35 0.27 0.34 0.44 0.34 0.43 0.46 0.32 0.14 0.04 0.01 0.00 0.00 0.00 0.04 0.08 0.10 0.15 0.20 0.02 0.00 0.00 0.01 0.01 0.00 0.00 0.01 0.04
0.98 0.82 0.71 0.68 0.56 0.48 0.60 0.39 0.24 0.36 0.26 0.04 0.00 0.00 0.01 0.20 0.33 0.37 0.34 0.39 0.31 0.40 0.40 0.26 0.11 0.04 0.02 0.01 0.01 0.00 0.00 0.01 0.00 0.00 0.00 0.00 0.00 0.00 0.00 0.00 0.00 0.00 0.00 0.00
0.80 0.64 0.56 0.60 0.55 0.49 0.68 0.40 0.27 0.34 0.31 0.08 0.02 0.02 0.00 0.08 0.20 0.35 0.35 0.35 0.30 0.40 0.31 0.40 0.23 0.12 0.02 0.01 0.00 0.00 0.00 0.00 0.00 0.00 0.00 0.00 0.00 0.00 0.00 0.00 0.00 0.00 0.00 0.00
0.80 0.60 0.57 0.46 0.48 0.58 0.71 0.26 0.18 0.32 0.48 0.31 0.07 0.03 0.01 0.04 0.19 0.29 0.32 0.44 0.36 0.37 0.49 0.52 0.51 0.29 0.06 0.03 0.00 0.00 0.00 0.00 0.00 0.00 0.00 0.00 0.00 0.00 0.00 0.00 0.00 0.00 0.00 0.00
0.68 0.56 0.61 0.60 0.64 0.76 0.55 0.28 0.27 0.31 0.58 0.62 0.29 0.09 0.02 0.01 0.16 0.33 0.37 0.50 0.71 0.66 0.80 0.75 0.45 0.26 0.14 0.11 0.09 0.05 0.00 0.00 0.00 0.00 0.00 0.00 0.01 0.00 0.00 0.00 0.01 0.00 0.00 0.00
0.58 0.57 0.73 0.80 0.77 1.15 0.98 1.31 0.72 0.41 0.60 1.43 0.96 0.41 0.15 0.07 0.17 0.39 0.54 0.52 0.58 0.90 0.96 0.77 0.47 0.21 0.36 0.70 0.22 0.00 0.00 0.00 0.00 0.01 0.00 0.01 0.00 0.00 0.00 0.00 0.00 0.00 0.00 0.00
0.71 0.76 0.79 0.74 0.93 1.07 1.09 1.00 0.67 0.67 0.91 1.69 1.25 0.97 0.45 0.21 0.32 0.61 0.73 0.76 0.81 0.91 1.25 0.82 0.45 0.29 0.69 1.00 0.30 0.01 0.00 0.00 0.00 0.00 0.01 0.00 0.00 0.00 0.00 0.00 0.00 0.00 0.00 0.00
0.94 0.99 1.02 1.12 1.56 1.65 1.20 0.61 0.72 0.94 1.42 1.60 1.50 1.14 0.60 0.46 0.48 0.75 0.86 0.83 0.86 0.97 1.09 0.68 0.35 0.43 0.75 0.66 0.03 0.00 0.01 0.01 0.01 0.01 0.01 0.00 0.01 0.01 0.02 0.02 0.01 0.00 0.00 0.00
1.47 1.79 2.07 2.38 2.07 1.32 0.89 0.86 1.14 1.16 1.64 2.11 1.28 0.53 0.48 0.51 0.37 0.56 0.61 0.80 0.95 0.86 0.64 0.60 0.52 0.44 0.41 0.14 0.02 0.00 0.00 0.00 0.00 0.00 0.00 0.00 0.00 0.00 0.00 0.01 0.01 0.02 0.04 0.05
2.70 2.82 2.75 2.47 1.56 1.18 1.51 2.21 2.77 2.78 2.09 1.57 0.87 0.32 0.26 0.47 0.34 0.54 0.68 0.60 0.59 0.56 0.26 0.34 0.64 0.30 0.09 0.06 0.01 0.00 0.00 0.00 0.01 0.01 0.02 0.01 0.02 0.02 0.01 0.02 0.01 0.02 0.03 0.05
3.45 2.92 2.08 1.51 1.37 2.04 2.87 2.97 2.34 1.67 1.12 0.59 0.31 0.29 0.25 0.28 0.41 0.66 0.74 0.84 0.54 0.47 0.15 0.30 0.41 0.19 0.09 0.06 0.03 0.01 0.00 0.01 0.01 0.01 0.03 0.05 0.05 0.05 0.04 0.05 0.06 0.05 0.04 0.05
2.54 1.92 1.97 2.58 2.93 3.24 2.87 2.07 0.98 0.58 0.19 0.20 0.21 0.20 0.30 0.40 0.45 0.73 1.00 0.78 0.74 0.38 0.26 0.55 0.16 0.03 0.01 0.02 0.05 0.09 0.07 0.05 0.04 0.03 0.03 0.07 0.16 0.20 0.19 0.16 0.13 0.10 0.08 0.05
2.75 2.97 3.33 3.12 2.78 2.46 1.58 0.68 0.32 0.24 0.15 0.21 0.19 0.22 0.29 0.35 0.49 0.94 1.06 0.96 0.50 0.25 0.38 0.17 0.01 0.02 0.06 0.11 0.06 0.02 0.03 0.04 0.14 0.24 0.30 0.25 0.20 0.15 0.18 0.27 0.23 0.19 0.13 0.07
3.72 3.64 3.30 2.01 1.49 0.60 0.20 0.11 0.11 0.07 0.08 0.13 0.16 0.28 0.28 0.31 0.63 0.72 0.77 0.52 0.51 0.60 0.29 0.06 0.06 0.09 0.13 0.13 0.12 0.08 0.04 0.02 0.08 0.10 0.16 0.21 0.23 0.24 0.21 0.21 0.22 0.20 0.20 0.20
3.40 2.95 1.85 0.96 0.36 0.15 0.14 0.12 0.08 0.11 0.15 0.18 0.24 0.43 0.47 0.60 0.91 0.67 0.61 0.64 0.34 0.07 0.02 0.06 0.10 0.19 0.29 0.30 0.25 0.16 0.10 0.06 0.06 0.05 0.12 0.19 0.06 0.04 0.12 0.22 0.24 0.16 0.12 0.18
3.41 2.58 1.29 0.42 0.11 0.08 0.09 0.10 0.12 0.13 0.17 0.26 0.47 0.75 0.80 0.76 0.70 0.73 0.47 0.43 0.15 0.11 0.20 0.28 0.30 0.44 0.48 0.41 0.25 0.12 0.07 0.04 0.07 0.19 0.33 0.20 0.04 0.01 0.02 0.06 0.19 0.18 0.17 0.09
3.68 1.53 0.47 0.17 0.06 0.05 0.06 0.05 0.06 0.12 0.36 0.54 0.92 1.18 0.52 0.46 0.65 0.24 0.09 0.11 0.08 0.20 0.31 0.33 0.34 0.33 0.22 0.10 0.04 0.01 0.02 0.04 0.03 0.06 0.16 0.18 0.12 0.04 0.02 0.03 0.02 0.02 0.03 0.07

GFSNW_prec_precacc_186.txt.gz
Total_Precipitation_Accumulation
1.97 1.98 1.77 1.64 1.93 1.83 2.28 2.22 2.01 1.92 2.35 2.56 1.80 1.08 0.78 0.47 0.16 0.17 0.14 0.12 0.03 0.01 0.02 0.04 0.13 0.12 0.09 0.03 0.11 0.32 0.41 0.80 0.81 0.65 0.18 0.13 0.25 0.27 0.20 0.73 0.54 0.41 0.41 0.85
1.99 2.34 2.04 1.30 1.77 1.92 2.01 2.00 1.85 2.76 1.57 1.10 0.73 0.47 0.44 0.30 0.10 0.15 0.19 0.12 0.01 0.01 0.03 0.03 0.02 0.01 0.01 0.00 0.02 0.20 0.44 1.01 0.82 0.70 0.48 0.49 0.69 0.33 0.37 0.63 1.00 0.77 0.43 0.54
1.73 2.11 2.27 1.56 1.54 1.66 1.89 1.87 1.90 3.74 2.47 0.61 0.18 0.42 0.46 0.30 0.06 0.08 0.14 0.12 0.03 0.05 0.03 0.01 0.01 0.00 0.00 0.00 0.00 0.16 0.72 0.81 0.86 0.71 0.63 0.88 0.72 0.34 0.53 1.08 1.15 0.37 0.18 0.10
1.57 1.83 2.38 2.62 2.09 1.93 1.75 1.30 0.79 0.85 0.98 0.50 0.11 0.36 0.34 0.37 0.23 0.13 0.17 0.12 0.04 0.07 0.03 0.01 0.01 0.00 0.00 0.00 0.00 0.16 0.66 1.15 1.28 0.54 0.32 0.69 0.60 0.31 0.43 0.98 0.55 0.51 0.16 0.06
1.90 1.78 1.88 2.35 2.05 2.04 1.37 0.77 0.58 0.12 0.07 0.06 0.16 0.23 0.28 0.34 0.34 0.28 0.20 0.15 0.04 0.04 0.05 0.01 0.01 0.00 0.00 0.01 0.01 0.15 0.55 0.95 0.81 0.34 0.20 0.40 0.47 0.23 0.35 0.56 0.41 0.30 0.12 0.11
1.82 1.63 1.79 1.97 1.62 1.90 1.41 0.69 0.50 0.15 0.12 0.13 0.10 0.08 0.12 0.23 0.37 0.24 0.09 0.09 0.11 0.07 0.03 0.01 0.00 0.00 0.00 0.00 0.01 0.07 0.36 0.63 0.82 0.65 0.41 0.55 0.52 0.26 0.31 0.41 0.35 0.24 0.14 0.12
1.46 1.47 1.61 1.71 1.63 1.58 1.23 0.70 0.67 0.32 0.12 0.05 0.02 0.02 0.11 0.23 0.27 0.26 0.14 0.08 0.12 0.06 0.06 0.04 0.02 0.02 0.00 0.01 0.01 0.01 0.10 0.32 0.66 0.76 0.67 0.68 0.49 0.29 0.21 0.23 0.23 0.17 0.16 0.11
1.12 1.18 1.30 1.35 1.31 0.92 0.70 0.59 0.60 0.38 0.10 0.03 0.03 0.03 0.13 0.22 0.21 0.31 0.27 0.09 0.03 0.05 0.07 0.16 0.13 0.11 0.11 0.02 0.02 0.02 0.05 0.10 0.31 0.27 0.28 0.20 0.08 0.16 0.17 0.23 0.16 0.08 0.12 0.05
1.25 1.07 0.94 1.03 0.88 0.77 0.48 0.47 0.62 0.55 0.22 0.05 0.02 0.03 0.15 0.24 0.20 0.29 0.24 0.11 0.09 0.15 0.22 0.36 0.23 0.12 0.10 0.04 0.04 0.03 0.04 0.06 0.21 0.18 0.25 0.11 0.04 0.02 0.01 0.02 0.06 0.01 0.01 0.01
1.43 1.28 0.99 1.05 0.77 0.57 0.42 0.42 0.48 0.47 0.21 0.03 0.01 0.02 0.15 0.33 0.21 0.27 0.35 0.24 0.21 0.22 0.36 0.38 0.22 0.07 0.01 0.01 0.02 0.06 0.16 0.16 0.28 0.22 0.26 0.01 0.00 0.00 0.00 0.04 0.02 0.00 0.03 0.03
1.27 1.27 0.95 0.90 0.63 0.54 0.58 0.29 0.32 0.47 0.25 0.01 0.00 0.00 0.08 0.38 0.35 0.27 0.34 0.44 0.34 0.43 0.46 0.32 0.14 0.04 0.01 0.00 0.00 0.00 0.04 0.08 0.10 0.15 0.20 0.02 0.00 0.00 0.01 0.01 0.00 0.00 0.01 0.04
0.99 0.82 0.72 0.70 0.59 0.55 0.73 0.47 0.25 0.36 0.26 0.04 0.00 0.00 0.01 0.20 0.33 0.37 0.34 0.39 0.31 0.40 0.40 0.26 0.11 0.04 0.02 0.01 0.01 0.00 0.00 0.01 0.00 0.00 0.00 0.00 0.00 0.00 0.00 0.00 0.00 0.00 0.00 0.00
0.81 0.64 0.57 0.61 0.58 0.57 0.81 0.52 0.31 0.35 0.31 0.09 0.02 0.02 0.00 0.08 0.20 0.35 0.35 0.35 0.30 0.40 0.31 0.40 0.23 0.12 0.02 0.01 0.00 0.00 0.00 0.00 0.00 0.00 0.00 0.00 0.00 0.00 0.00 0.00 0.00 0.00 0.00 0.00
0.82 0.61 0.57 0.47 0.52 0.66 0.85 0.45 0.31 0.36 0.49 0.31 0.07 0.03 0.01 0.04 0.19 0.29 0.32 0.44 0.36 0.37 0.49 0.52 0.51 0.29 0.06 0.03 0.00 0.00 0.00 0.00 0.00 0.00 0.00 0.00 0.00 0.00 0.00 0.00 0.00 0.00 0.00 0.00
0.70 0.58 0.62 0.61 0.68 0.86 0.73 0.49 0.47 0.38 0.60 0.62 0.29 0.09 0.02 0.01 0.16 0.33 0.37 0.50 0.71 0.66 0.80 0.75 0.45 0.26 0.14 0.11 0.10 0.05 0.00 0.00 0.01 0.01 0.00 0.00 0.01 0.00 0.00 0.00 0.01 0.00 0.00 0.00
0.59 0.59 0.75 0.81 0.81 1.27 1.29 1.92 1.24 0.57 0.66 1.45 0.96 0.41 0.15 0.07 0.17 0.39 0.54 0.52 0.58 0.90 0.96 0.77 0.47 0.21 0.36 0.74 0.25 0.00 0.00 0.00 0.00 0.01 0.00 0.01 0.00 0.00 0.00 0.00 0.00 0.00 0.00 0.00
0.73 0.77 0.81 0.78 0.98 1.22 1.48 1.56 1.02 0.79 0.97 1.77 1.26 0.97 0.45 0.21 0.32 0.61 0.73 0.76 0.81 0.91 1.26 0.84 0.47 0.31 0.70 1.05 0.31 0.01 0.00 0.00 0.00 0.00 0.01 0.00 0.00 0.00 0.00 0.00 0.00 0.00 0.00 0.00
0.97 1.03 1.06 1.19 1.68 1.89 1.61 0.99 0.77 0.96 1.51 1.76 1.56 1.17 0.61 0.46 0.48 0.75 0.86 0.83 0.86 0.99 1.12 0.72 0.38 0.47 0.82 0.71 0.03 0.00 0.01 0.01 0.01 0.01 0.01 0.00 0.01 0.01 0.02 0.02 0.01 0.00 0.00 0.00
1.56 1.88 2.19 2.61 2.47 1.87 1.53 1.28 1.33 1.21 1.80 2.46 1.49 0.56 0.50 0.52 0.37 0.57 0.63 0.82 1.01 0.96 0.73 0.66 0.55 0.50 0.46 0.15 0.02 0.00 0.00 0.00 0.00 0.00 0.00 0.00 0.00 0.00 0.00 0.01 0.01 0.02 0.04 0.05
2.85 3.06 3.16 3.08 2.22 1.70 1.88 2.53 3.23 3.28 2.39 1.74 0.99 0.34 0.27 0.48 0.35 0.55 0.72 0.72 0.73 0.68 0.34 0.40 0.70 0.35 0.11 0.06 0.02 0.00 0.00 0.00 0.01 0.01 0.02 0.01 0.02 0.02 0.01 0.02 0.01 0.02 0.03 0.05
3.80 3.40 2.65 2.26 2.00 2.37 3.14 3.48 2.92 2.29 1.55 0.79 0.39 0.30 0.26 0.30 0.42 0.67 0.81 0.97 0.67 0.57 0.22 0.35 0.46 0.21 0.10 0.07 0.04 0.01 0.00 0.01 0.01 0.01 0.03 0.05 0.05 0.05 0.04 0.05 0.06 0.05 0.04 0.05
2.92 2.26 2.36 2.96 3.27 3.56 3.24 2.41 1.30 0.88 0.40 0.29 0.23 0.22 0.31 0.47 0.51 0.82 1.12 0.87 0.81 0.44 0.28 0.57 0.17 0.03 0.01 0.04 0.06 0.09 0.07 0.05 0.04 0.03 0.03 0.07 0.16 0.20 0.19 0.16 0.13 0.10 0.08 0.05
3.09 3.22 3.55 3.38 3.03 2.68 1.79 0.88 0.49 0.35 0.19 0.22 0.21 0.26 0.32 0.41 0.56 1.02 1.15 1.05 0.56 0.27 0.39 0.18 0.01 0.02 0.07 0.12 0.06 0.02 0.03 0.04 0.14 0.24 0.30 0.25 0.20 0.15 0.18 0.27 0.23 0.19 0.13 0.07
3.90 3.80 3.46 2.18 1.63 0.68 0.24 0.13 0.12 0.09 0.09 0.13 0.16 0.29 0.31 0.37 0.70 0.80 0.84 0.59 0.53 0.60 0.29 0.06 0.06 0.09 0.14 0.13 0.12 0.08 0.04 0.02 0.08 0.10 0.16 0.21 0.23 0.24 0.21 0.21 0.22 0.20 0.20 0.20
3.52 3.07 1.97 1.06 0.44 0.18 0.15 0.13 0.09 0.14 0.17 0.19 0.27 0.50 0.55 0.70 0.99 0.72 0.64 0.67 0.36 0.07 0.02 0.06 0.10 0.20 0.29 0.30 0.25 0.16 0.10 0.06 0.06 0.05 0.12 0.19 0.06 0.04 0.12 0.22 0.24 0.16 0.12 0.18
3.43 2.66 1.39 0.51 0.17 0.14 0.14 0.16 0.20 0.24 0.26 0.30 0.52 0.81 0.88 0.84 0.75 0.76 0.49 0.44 0.15 0.11 0.20 0.28 0.30 0.44 0.48 0.41 0.25 0.12 0.07 0.04 0.07 0.19 0.33 0.20 0.04 0.01 0.02 0.06 0.19 0.18 0.17 0.09
3.70 1.58 0.51 0.23 0.12 0.13 0.15 0.14 0.14 0.17 0.39 0.56 0.94 1.19 0.55 0.48 0.65 0.24 0.09 0.11 0.08 0.20 0.31 0.33 0.34 0.33 0.22 0.10 0.04 0.01 0.02 0.04 0.03 0.06 0.16 0.18 0.12 0.04 0.02 0.03 0.02 0.02 0.03 0.07

GFSNW_prec_precacc_189.txt.gz
Total_Precipitation_Accumulation
1.97 1.98 1.77 1.64 1.93 1.83 2.28 2.22 2.01 1.92 2.35 2.56 1.80 1.08 0.78 0.47 0.16 0.17 0.14 0.12 0.03 0.01 0.02 0.04 0.13 0.12 0.09 0.03 0.11 0.32 0.41 0.80 0.81 0.65 0.18 0.13 0.25 0.27 0.20 0.73 0.54 0.41 0.41 0.85
1.99 2.34 2.04 1.30 1.77 1.92 2.01 2.00 1.85 2.76 1.57 1.10 0.73 0.47 0.44 0.30 0.10 0.15 0.19 0.12 0.01 0.01 0.03 0.03 0.02 0.01 0.01 0.00 0.02 0.20 0.44 1.01 0.82 0.70 0.48 0.49 0.69 0.33 0.37 0.63 1.00 0.77 0.43 0.54
1.73 2.12 2.28 1.57 1.54 1.66 1.89 1.87 1.90 3.74 2.47 0.61 0.18 0.42 0.46 0.30 0.06 0.08 0.14 0.12 0.03 0.05 0.03 0.01 0.01 0.00 0.00 0.00 0.00 0.16 0.72 0.81 0.86 0.71 0.63 0.88 0.72 0.34 0.53 1.08 1.15 0.37 0.18 0.10
1.58 1.83 2.38 2.63 2.10 1.94 1.75 1.30 0.79 0.85 0.98 0.50 0.11 0.36 0.34 0.37 0.23 0.13 0.17 0.12 0.04 0.07 0.03 0.01 0.01 0.00 0.00 0.00 0.00 0.16 0.66 1.15 1.28 0.54 0.32 0.69 0.60 0.31 0.43 0.98 0.55 0.51 0.16 0.06
1.90 1.79 1.89 2.36 2.07 2.05 1.37 0.77 0.58 0.12 0.07 0.06 0.16 0.23 0.28 0.34 0.34 0.28 0.20 0.15 0.04 0.04 0.05 0.01 0.01 0.00 0.00 0.01 0.01 0.15 0.55 0.95 0.81 0.34 0.20 0.40 0.47 0.23 0.35 0.56 0.41 0.30 0.12 0.11
1.82 1.63 1.80 1.98 1.66 1.95 1.41 0.69 0.50 0.15 0.12 0.13 0.10 0.08 0.12 0.23 0.37 0.24 0.09 0.09 0.11 0.07 0.03 0.01 0.00 0.00 0.00 0.00 0.01 0.07 0.36 0.63 0.82 0.65 0.41 0.55 0.52 0.26 0.31 0.41 0.35 0.24 0.14 0.12
1.46 1.48 1.61 1.72 1.66 1.70 1.25 0.71 0.67 0.32 0.12 0.05 0.02 0.02 0.11 0.23 0.27 0.26 0.14 0.08 0.12 0.06 0.06 0.04 0.02 0.02 0.00 0.01 0.01 0.01 0.10 0.32 0.66 0.76 0.67 0.68 0.49 0.29 0.21 0.23 0.23 0.17 0.16 0.11
1.13 1.19 1.30 1.36 1.33 1.01 0.81 0.63 0.62 0.38 0.10 0.03 0.03 0.03 0.13 0.22 0.21 0.31 0.27 0.09 0.03 0.05 0.07 0.16 0.13 0.11 0.11 0.02 0.02 0.02 0.05 0.10 0.31 0.27 0.28 0.20 0.08 0.16 0.17 0.23 0.16 0.08 0.12 0.05
1.25 1.08 0.95 1.04 0.89 0.81 0.61 0.58 0.66 0.58 0.23 0.06 0.02 0.03 0.15 0.24 0.20 0.29 0.24 0.11 0.09 0.15 0.22 0.36 0.23 0.12 0.10 0.04 0.04 0.03 0.04 0.06 0.21 0.18 0.25 0.11 0.04 0.02 0.01 0.02 0.06 0.01 0.01 0.01
1.43 1.29 1.00 1.06 0.77 0.58 0.52 0.55 0.59 0.57 0.26 0.04 0.01 0.02 0.15 0.33 0.21 0.27 0.35 0.24 0.21 0.22 0.36 0.38 0.22 0.07 0.01 0.01 0.02 0.06 0.16 0.16 0.28 0.22 0.26 0.01 0.00 0.00 0.00 0.04 0.02 0.00 0.03 0.03
1.27 1.27 0.96 0.91 0.63 0.54 0.62 0.41 0.47 0.64 0.37 0.04 0.00 0.00 0.08 0.38 0.35 0.27 0.34 0.44 0.34 0.43 0.46 0.32 0.14 0.04 0.01 0.00 0.00 0.00 0.04 0.08 0.10 0.15 0.20 0.02 0.00 0.00 0.01 0.01 0.00 0.00 0.01 0.04
1.00 0.83 0.72 0.71 0.60 0.55 0.74 0.56 0.37 0.52 0.49 0.16 0.02 0.00 0.01 0.20 0.33 0.37 0.34 0.39 0.31 0.40 0.40 0.26 0.11 0.04 0.02 0.01 0.01 0.00 0.00 0.01 0.00 0.00 0.00 0.00 0.00 0.00 0.00 0.00 0.00 0.00 0.00 0.00
0.83 0.65 0.58 0.62 0.59 0.58 0.83 0.55 0.44 0.61 0.60 0.27 0.09 0.04 0.00 0.08 0.20 0.35 0.35 0.35 0.30 0.40 0.31 0.40 0.23 0.12 0.02 0.01 0.00 0.00 0.00 0.00 0.00 0.00 0.00 0.00 0.00 0.00 0.00 0.00 0.00 0.00 0.00 0.00
0.84 0.63 0.59 0.49 0.54 0.67 0.86 0.46 0.42 0.59 0.77 0.60 0.16 0.03 0.01 0.04 0.19 0.29 0.32 0.44 0.36 0.37 0.49 0.52 0.51 0.29 0.06 0.03 0.00 0.00 0.00 0.00 0.00 0.00 0.00 0.00 0.00 0.00 0.00 0.00 0.00 0.00 0.00 0.00
0.72 0.59 0.64 0.63 0.69 0.87 0.74 0.50 0.53 0.53 0.86 0.96 0.42 0.11 0.02 0.01 0.16 0.33 0.37 0.50 0.71 0.66 0.80 0.75 0.45 0.26 0.14 0.11 0.10 0.05 0.00 0.00 0.01 0.01 0.00 0.00 0.01 0.00 0.00 0.00 0.01 0.00 0.00 0.00
0.60 0.60 0.76 0.84 0.83 1.29 1.32 1.97 1.28 0.72 0.85 1.79 1.20 0.47 0.15 0.07 0.17 0.39 0.54 0.52 0.58 0.90 0.96 0.77 0.47 0.21 0.36 0.74 0.25 0.00 0.00 0.00 0.00 0.01 0.01 0.02 0.02 0.00 0.00 0.00 0.00 0.00 0.00 0.00
0.75 0.79 0.82 0.80 1.02 1.27 1.59 1.69 1.08 0.85 1.09 2.09 1.61 1.14 0.49 0.22 0.32 0.61 0.73 0.76 0.81 0.91 1.26 0.84 0.47 0.31 0.70 1.05 0.31 0.01 0.00 0.00 0.00 0.01 0.02 0.02 0.01 0.01 0.00 0.00 0.00 0.00 0.00 0.00
1.04 1.06 1.09 1.22 1.72 1.98 1.76 1.08 0.84 1.00 1.56 2.11 2.05 1.44 0.68 0.47 0.48 0.75 0.86 0.83 0.86 0.99 1.12 0.72 0.38 0.47 0.82 0.72 0.03 0.00 0.01 0.01 0.01 0.01 0.01 0.01 0.01 0.01 0.02 0.02 0.01 0.00 0.00 0.00
1.72 2.05 2.39 2.84 2.77 2.16 1.70 1.37 1.48 1.34 1.95 2.90 1.97 0.78 0.60 0.57 0.38 0.57 0.63 0.82 1.02 0.98 0.75 0.67 0.55 0.51 0.47 0.15 0.02 0.00 0.00 0.01 0.01 0.01 0.00 0.00 0.00 0.00 0.00 0.01 0.01 0.02 0.04 0.05
3.12 3.42 3.59 3.53 2.62 1.84 2.00 2.80 3.68 3.78 2.88 2.08 1.25 0.42 0.31 0.52 0.37 0.56 0.73 0.74 0.76 0.73 0.38 0.43 0.72 0.36 0.12 0.06 0.02 0.00 0.01 0.01 0.02 0.01 0.02 0.01 0.02 0.02 0.01 0.02 0.01 0.02 0.03 0.05
3.84 3.49 2.89 2.66 2.22 2.61 3.52 4.07 3.50 2.95 2.15 1.25 0.56 0.33 0.27 0.31 0.42 0.68 0.84 1.05 0.78 0.65 0.27 0.37 0.49 0.22 0.11 0.09 0.06 0.02 0.01 0.01 0.01 0.01 0.03 0.05 0.05 0.05 0.04 0.05 0.06 0.05 0.04 0.05
3.09 2.34 2.48 3.13 3.47 3.84 3.59 2.84 1.68 1.39 0.85 0.60 0.34 0.25 0.31 0.51 0.56 0.91 1.25 0.99 0.91 0.50 0.31 0.60 0.19 0.03 0.01 0.05 0.08 0.10 0.08 0.05 0.04 0.03 0.03 0.07 0.16 0.20 0.19 0.16 0.13 0.10 0.08 0.05
3.19 3.32 3.72 3.57 3.22 2.93 2.08 1.19 0.73 0.60 0.40 0.32 0.23 0.28 0.34 0.47 0.64 1.13 1.25 1.15 0.63 0.30 0.40 0.19 0.01 0.02 0.07 0.13 0.08 0.03 0.03 0.04 0.14 0.24 0.30 0.25 0.20 0.15 0.18 0.27 0.23 0.19 0.13 0.07
4.06 3.91 3.59 2.35 1.75 0.84 0.40 0.24 0.21 0.15 0.12 0.14 0.16 0.30 0.34 0.43 0.76 0.87 0.91 0.66 0.56 0.63 0.30 0.06 0.06 0.09 0.14 0.13 0.12 0.09 0.04 0.02 0.08 0.10 0.16 0.21 0.23 0.24 0.21 0.21 0.22 0.20 0.20 0.20
3.67 3.22 2.12 1.19 0.56 0.30 0.26 0.19 0.13 0.18 0.17 0.19 0.27 0.51 0.56 0.73 1.05 0.81 0.69 0.71 0.38 0.08 0.02 0.06 0.10 0.20 0.29 0.30 0.25 0.16 0.10 0.06 0.06 0.05 0.12 0.19 0.06 0.04 0.12 0.22 0.24 0.16 0.12 0.18
3.46 2.76 1.54 0.66 0.32 0.29 0.28 0.25 0.27 0.30 0.28 0.31 0.54 0.86 0.95 0.93 0.83 0.81 0.52 0.45 0.16 0.11 0.20 0.28 0.30 0.44 0.48 0.41 0.25 0.12 0.07 0.04 0.07 0.19 0.33 0.20 0.04 0.01 0.02 0.06 0.19 0.18 0.17 0.09
3.73 1.66 0.64 0.38 0.30 0.32 0.32 0.26 0.24 0.23 0.41 0.59 0.98 1.24 0.62 0.53 0.69 0.26 0.10 0.11 0.08 0.20 0.31 0.33 0.34 0.33 0.22 0.10 0.04 0.01 0.02 0.04 0.03 0.06 0.16 0.18 0.12 0.04 0.02 0.03 0.02 0.02 0.03 0.07

GFSNW_prec_precacc_192.txt.gz
Total_Precipitation_Accumulation
1.97 1.98 1.77 1.64 1.93 1.83 2.28 2.22 2.01 1.92 2.35 2.56 1.80 1.08 0.78 0.47 0.16 0.17 0.14 0.12 0.03 0.01 0.02 0.04 0.13 0.12 0.09 0.03 0.11 0.32 0.41 0.80 0.81 0.65 0.18 0.13 0.25 0.27 0.20 0.73 0.54 0.41 0.41 0.85
1.99 2.34 2.04 1.31 1.77 1.92 2.01 2.00 1.85 2.76 1.57 1.10 0.73 0.47 0.44 0.30 0.10 0.15 0.19 0.12 0.01 0.01 0.03 0.03 0.02 0.01 0.01 0.00 0.02 0.20 0.44 1.01 0.82 0.70 0.48 0.49 0.69 0.33 0.37 0.63 1.00 0.77 0.43 0.54
1.73 2.12 2.28 1.57 1.56 1.67 1.89 1.87 1.90 3.74 2.47 0.61 0.18 0.42 0.46 0.30 0.06 0.08 0.14 0.12 0.03 0.05 0.03 0.01 0.01 0.00 0.00 0.00 0.00 0.16 0.72 0.81 0.86 0.71 0.63 0.88 0.72 0.34 0.53 1.08 1.15 0.37 0.18 0.10
1.58 1.84 2.39 2.63 2.12 1.98 1.76 1.30 0.79 0.85 0.98 0.50 0.11 0.36 0.34 0.37 0.23 0.13 0.17 0.12 0.04 0.07 0.03 0.01 0.01 0.00 0.00 0.00 0.00 0.16 0.66 1.15 1.28 0.54 0.32 0.69 0.60 0.31 0.43 0.98 0.55 0.51 0.16 0.06
1.91 1.80 1.89 2.36 2.08 2.12 1.40 0.77 0.58 0.12 0.07 0.06 0.16 0.23 0.28 0.34 0.34 0.28 0.20 0.15 0.04 0.04 0.05 0.01 0.01 0.00 0.00 0.01 0.01 0.15 0.55 0.95 0.81 0.34 0.20 0.40 0.47 0.23 0.35 0.56 0.41 0.30 0.12 0.11
1.83 1.64 1.80 1.99 1.66 2.03 1.47 0.71 0.50 0.15 0.12 0.13 0.10 0.08 0.12 0.23 0.37 0.24 0.09 0.09 0.11 0.07 0.03 0.01 0.00 0.00 0.00 0.00 0.01 0.07 0.36 0.63 0.82 0.65 0.41 0.55 0.52 0.26 0.31 0.41 0.35 0.24 0.14 0.12
1.47 1.49 1.62 1.72 1.66 1.72 1.36 0.80 0.73 0.33 0.12 0.05 0.02 0.02 0.11 0.23 0.27 0.26 0.14 0.08 0.12 0.06 0.06 0.04 0.02 0.02 0.00 0.01 0.01 0.01 0.10 0.32 0.66 0.76 0.67 0.68 0.49 0.29 0.21 0.23 0.23 0.17 0.16 0.11
1.13 1.20 1.31 1.36 1.34 1.01 0.83 0.71 0.75 0.48 0.13 0.03 0.03 0.03 0.13 0.22 0.21 0.31 0.27 0.09 0.03 0.05 0.07 0.16 0.13 0.11 0.11 0.02 0.02 0.02 0.05 0.10 0.31 0.27 0.28 0.20 0.08 0.16 0.17 0.23 0.16 0.08 0.12 0.05
1.26 1.09 0.96 1.05 0.89 0.81 0.62 0.61 0.77 0.76 0.36 0.08 0.02 0.03 0.15 0.24 0.20 0.29 0.24 0.11 0.09 0.15 0.22 0.36 0.23 0.12 0.10 0.04 0.04 0.03 0.04 0.06 0.21 0.18 0.25 0.11 0.04 0.02 0.01 0.02 0.06 0.01 0.01 0.01
1.44 1.30 1.01 1.07 0.78 0.59 0.53 0.56 0.63 0.76 0.47 0.08 0.02 0.02 0.15 0.33 0.21 0.27 0.35 0.24 0.21 0.22 0.36 0.38 0.22 0.07 0.01 0.01 0.02 0.06 0.16 0.16 0.28 0.22 0.26 0.01 0.00 0.00 0.00 0.04 0.02 0.00 0.03 0.03
1.29 1.29 0.97 0.92 0.64 0.55 0.65 0.42 0.48 0.71 0.52 0.14 0.04 0.04 0.10 0.38 0.35 0.27 0.34 0.44 0.34 0.43 0.46 0.32 0.14 0.04 0.01 0.00 0.00 0.00 0.04 0.08 0.10 0.15 0.20 0.02 0.00 0.00 0.01 0.01 0.00 0.00 0.01 0.04
1.02 0.86 0.74 0.72 0.61 0.57 0.78 0.58 0.38 0.54 0.57 0.26 0.06 0.05 0.07 0.23 0.33 0.37 0.34 0.39 0.31 0.40 0.40 0.26 0.11 0.04 0.02 0.01 0.01 0.00 0.00 0.01 0.00 0.00 0.00 0.00 0.00 0.00 0.00 0.00 0.00 0.00 0.00 0.00
0.85 0.67 0.59 0.63 0.60 0.60 0.87 0.57 0.46 0.64 0.63 0.30 0.12 0.08 0.03 0.10 0.21 0.35 0.35 0.35 0.30 0.40 0.31 0.40 0.23 0.12 0.02 0.01 0.00 0.00 0.00 0.00 0.00 0.00 0.00 0.00 0.00 0.00 0.00 0.00 0.00 0.00 0.00 0.00
0.85 0.64 0.60 0.51 0.55 0.69 0.90 0.50 0.44 0.65 0.85 0.68 0.20 0.04 0.01 0.04 0.19 0.29 0.33 0.44 0.36 0.37 0.49 0.52 0.51 0.29 0.06 0.03 0.00 0.00 0.00 0.00 0.00 0.00 0.00 0.00 0.00 0.00 0.00 0.00 0.00 0.00 0.00 0.00
0.72 0.60 0.65 0.64 0.71 0.89 0.79 0.54 0.55 0.56 0.95 1.07 0.44 0.13 0.04 0.03 0.17 0.33 0.37 0.50 0.71 0.66 0.80 0.75 0.45 0.26 0.14 0.11 0.10 0.05 0.00 0.00 0.01 0.01 0.00 0.00 0.01 0.00 0.00 0.01 0.01 0.00 0.00 0.00
0.61 0.61 0.77 0.85 0.86 1.33 1.38 2.15 1.41 0.73 0.88 1.88 1.25 0.49 0.17 0.10 0.22 0.43 0.55 0.52 0.59 0.90 0.96 0.77 0.47 0.21 0.36 0.74 0.25 0.00 0.00 0.00 0.00 0.01 0.01 0.02 0.02 0.01 0.00 0.00 0.00 0.00 0.00 0.00
0.77 0.81 0.84 0.82 1.05 1.32 1.69 2.01 1.23 0.86 1.10 2.17 1.73 1.22 0.55 0.25 0.35 0.65 0.79 0.79 0.83 0.94 1.26 0.84 0.47 0.31 0.70 1.05 0.31 0.01 0.00 0.00 0.00 0.01 0.02 0.02 0.01 0.01 0.00 0.00 0.00 0.00 0.00 0.00
1.06 1.08 1.10 1.23 1.74 2.03 1.89 1.25 0.92 1.04 1.59 2.19 2.17 1.53 0.75 0.52 0.62 0.92 0.94 0.91 0.92 1.02 1.13 0.72 0.38 0.47 0.82 0.72 0.03 0.00 0.01 0.01 0.01 0.01 0.01 0.01 0.01 0.01 0.02 0.02 0.01 0.00 0.00 0.00
1.74 2.06 2.40 2.89 2.84 2.25 1.75 1.41 1.53 1.47 2.15 3.11 2.10 0.85 0.67 0.67 0.52 0.67 0.77 0.92 1.10 1.06 0.78 0.68 0.55 0.51 0.47 0.15 0.02 0.00 0.00 0.01 0.01 0.01 0.00 0.00 0.00 0.00 0.00 0.01 0.01 0.02 0.04 0.05
3.13 3.42 3.67 3.75 2.98 2.32 2.32 3.17 4.03 4.53 3.64 2.31 1.33 0.46 0.43 0.62 0.50 0.76 0.86 0.85 0.84 0.82 0.45 0.45 0.74 0.37 0.12 0.06 0.02 0.00 0.01 0.01 0.02 0.01 0.02 0.01 0.02 0.02 0.01 0.02 0.01 0.02 0.03 0.05
3.88 3.55 3.02 2.99 2.66 3.21 3.90 4.52 4.10 3.59 2.86 1.64 0.62 0.38 0.32 0.44 0.49 0.79 0.97 1.19 0.90 0.72 0.33 0.40 0.52 0.24 0.11 0.09 0.06 0.02 0.01 0.01 0.01 0.01 0.03 0.05 0.05 0.05 0.04 0.05 0.06 0.05 0.04 0.05
3.29 2.55 2.61 3.29 3.63 4.12 3.89 3.08 1.89 1.49 0.95 0.74 0.47 0.31 0.36 0.60 0.84 1.08 1.36 1.08 0.99 0.55 0.34 0.62 0.20 0.03 0.02 0.06 0.09 0.10 0.08 0.05 0.04 0.03 0.03 0.07 0.16 0.20 0.19 0.16 0.13 0.10 0.08 0.05
3.35 3.47 3.79 3.58 3.23 2.96 2.14 1.25 0.77 0.62 0.48 0.42 0.34 0.33 0.48 0.55 0.88 1.45 1.41 1.28 0.74 0.33 0.43 0.20 0.01 0.02 0.09 0.15 0.08 0.04 0.03 0.05 0.14 0.24 0.30 0.25 0.20 0.15 0.18 0.27 0.23 0.19 0.13 0.07
4.20 3.97 3.64 2.37 1.75 0.84 0.40 0.26 0.24 0.17 0.21 0.24 0.19 0.33 0.48 0.60 0.89 1.05 1.03 0.76 0.60 0.64 0.30 0.06 0.06 0.10 0.16 0.15 0.13 0.09 0.04 0.02 0.08 0.10 0.16 0.21 0.23 0.24 0.21 0.21 0.22 0.20 0.20 0.20
3.77 3.28 2.15 1.23 0.62 0.36 0.32 0.25 0.23 0.33 0.33 0.39 0.37 0.54 0.60 0.84 1.17 0.93 0.78 0.77 0.41 0.08 0.02 0.06 0.10 0.21 0.30 0.31 0.25 0.17 0.10 0.06 0.06 0.05 0.12 0.19 0.06 0.04 0.12 0.22 0.24 0.16 0.12 0.18
3.50 2.80 1.58 0.72 0.41 0.38 0.39 0.37 0.42 0.47 0.47 0.51 0.79 1.02 1.07 1.05 0.93 0.87 0.56 0.46 0.16 0.11 0.20 0.28 0.30 0.45 0.48 0.41 0.25 0.13 0.07 0.04 0.07 0.19 0.33 0.20 0.04 0.01 0.02 0.06 0.19 0.18 0.17 0.09
3.75 1.71 0.72 0.48 0.43 0.47 0.52 0.48 0.51 0.47 0.61 0.79 1.22 1.39 0.76 0.65 0.75 0.28 0.10 0.11 0.08 0.20 0.31 0.33 0.34 0.34 0.22 0.10 0.04 0.01 0.02 0.04 0.03 0.06 0.16 0.18 0.12 0.04 0.02 0.03 0.02 0.02 0.03 0.07

GFSNW_prec_precacc_198.txt.gz
Total_Precipitation_Accumulation
1.97 1.98 1.77 1.64 1.94 1.83 2.28 2.22 2.01 1.92 2.35 2.56 1.80 1.08 0.78 0.47 0.16 0.17 0.14 0.12 0.03 0.01 0.02 0.04 0.13 0.12 0.09 0.03 0.11 0.32 0.41 0.80 0.81 0.65 0.18 0.13 0.25 0.27 0.20 0.73 0.54 0.41 0.41 0.85
1.99 2.34 2.04 1.31 1.77 1.93 2.01 2.00 1.85 2.76 1.57 1.10 0.73 0.47 0.44 0.30 0.10 0.15 0.19 0.12 0.01 0.01 0.03 0.03 0.02 0.01 0.01 0.00 0.02 0.20 0.44 1.01 0.82 0.70 0.48 0.49 0.69 0.33 0.37 0.63 1.00 0.77 0.43 0.54
1.73 2.12 2.28 1.57 1.56 1.70 1.91 1.87 1.90 3.74 2.47 0.61 0.18 0.42 0.46 0.30 0.06 0.08 0.14 0.12 0.03 0.05 0.03 0.01 0.01 0.00 0.00 0.00 0.00 0.16 0.72 0.81 0.86 0.71 0.63 0.88 0.72 0.34 0.53 1.08 1.15 0.37 0.18 0.10
1.58 1.84 2.39 2.63 2.12 1.98 1.79 1.31 0.79 0.85 0.98 0.50 0.11 0.36 0.34 0.37 0.23 0.13 0.17 0.12 0.04 0.07 0.03 0.01 0.01 0.00 0.00 0.00 0.00 0.16 0.66 1.15 1.28 0.54 0.32 0.69 0.60 0.31 0.43 0.98 0.55 0.51 0.16 0.06
1.91 1.80 1.90 2.36 2.09 2.12 1.42 0.80 0.60 0.12 0.07 0.06 0.16 0.23 0.28 0.34 0.34 0.28 0.20 0.15 0.04 0.04 0.05 0.01 0.01 0.00 0.00 0.01 0.01 0.15 0.55 0.95 0.81 0.34 0.20 0.40 0.47 0.23 0.35 0.56 0.41 0.30 0.12 0.11
1.83 1.64 1.81 1.99 1.67 2.04 1.50 0.74 0.53 0.19 0.14 0.13 0.10 0.08 0.12 0.23 0.37 0.24 0.09 0.09 0.11 0.07 0.03 0.01 0.00 0.00 0.00 0.00 0.01 0.07 0.36 0.63 0.82 0.65 0.41 0.55 0.52 0.26 0.31 0.41 0.35 0.24 0.14 0.12
1.47 1.49 1.63 1.73 1.67 1.74 1.41 0.84 0.80 0.39 0.15 0.06 0.03 0.02 0.11 0.23 0.27 0.26 0.14 0.08 0.12 0.06 0.06 0.04 0.02 0.02 0.00 0.01 0.01 0.01 0.10 0.32 0.66 0.76 0.67 0.68 0.49 0.29 0.21 0.23 0.23 0.17 0.16 0.11
1.13 1.20 1.31 1.37 1.34 1.02 0.87 0.75 0.82 0.56 0.19 0.05 0.04 0.03 0.14 0.22 0.21 0.31 0.27 0.09 0.03 0.05 0.07 0.16 0.13 0.11 0.11 0.02 0.02 0.02 0.05 0.10 0.31 0.27 0.28 0.20 0.08 0.16 0.17 0.23 0.16 0.08 0.12 0.05
1.26 1.09 0.96 1.05 0.90 0.83 0.66 0.64 0.84 0.88 0.47 0.10 0.04 0.07 0.17 0.26 0.21 0.30 0.24 0.11 0.09 0.15 0.22 0.36 0.23 0.12 0.10 0.04 0.04 0.03 0.04 0.06 0.21 0.18 0.25 0.11 0.04 0.02 0.01 0.02 0.06 0.01 0.01 0.01
1.45 1.30 1.01 1.07 0.79 0.60 0.59 0.60 0.70 0.88 0.54 0.10 0.02 0.06 0.22 0.40 0.28 0.33 0.38 0.26 0.22 0.23 0.37 0.39 0.22 0.07 0.01 0.01 0.02 0.06 0.16 0.16 0.28 0.22 0.26 0.01 0.00 0.00 0.00 0.04 0.02 0.00 0.03 0.03
1.29 1.30 0.98 0.93 0.66 0.58 0.74 0.46 0.54 0.85 0.62 0.16 0.05 0.05 0.15 0.44 0.40 0.34 0.38 0.48 0.36 0.46 0.47 0.32 0.14 0.04 0.01 0.00 0.00 0.00 0.04 0.08 0.10 0.15 0.20 0.02 0.00 0.00 0.01 0.01 0.00 0.00 0.01 0.04
1.02 0.86 0.75 0.74 0.63 0.60 0.88 0.66 0.42 0.66 0.74 0.35 0.08 0.06 0.07 0.26 0.38 0.45 0.43 0.47 0.36 0.48 0.47 0.30 0.12 0.04 0.02 0.01 0.01 0.00 0.00 0.01 0.00 0.00 0.00 0.00 0.00 0.00 0.00 0.00 0.00 0.00 0.00 0.00
0.85 0.68 0.60 0.65 0.63 0.64 1.00 0.70 0.55 0.80 0.82 0.39 0.14 0.08 0.03 0.10 0.22 0.39 0.49 0.41 0.32 0.46 0.41 0.62 0.32 0.14 0.02 0.01 0.00 0.00 0.00 0.00 0.00 0.00 0.00 0.00 0.00 0.00 0.00 0.00 0.00 0.00 0.00 0.00
0.86 0.66 0.62 0.53 0.57 0.72 0.99 0.62 0.50 0.82 1.22 1.15 0.29 0.04 0.01 0.04 0.19 0.30 0.36 0.52 0.38 0.41 0.54 0.70 0.75 0.38 0.07 0.03 0.00 0.00 0.00 0.00 0.00 0.00 0.00 0.00 0.00 0.00 0.00 0.00 0.00 0.00 0.00 0.00
0.73 0.61 0.66 0.66 0.73 0.93 0.89 0.64 0.59 0.61 1.10 1.35 0.51 0.14 0.04 0.03 0.17 0.34 0.39 0.52 0.79 0.76 0.91 0.90 0.60 0.33 0.19 0.14 0.11 0.05 0.00 0.00 0.01 0.01 0.00 0.00 0.01 0.00 0.00 0.01 0.01 0.00 0.00 0.00
0.63 0.62 0.78 0.87 0.89 1.42 1.54 2.44 1.49 0.74 0.93 2.03 1.49 0.53 0.17 0.10 0.23 0.43 0.57 0.57 0.67 1.09 1.28 1.04 0.59 0.23 0.38 0.83 0.32 0.01 0.00 0.00 0.00 0.01 0.01 0.02 0.02 0.01 0.00 0.00 0.00 0.00 0.00 0.00
0.80 0.83 0.86 0.86 1.10 1.43 1.83 2.32 1.31 0.93 1.20 2.56 2.35 1.53 0.57 0.25 0.35 0.65 0.80 0.81 0.88 1.10 1.50 1.08 0.65 0.38 0.76 1.20 0.43 0.02 0.00 0.00 0.00 0.01 0.02 0.02 0.01 0.01 0.00 0.00 0.00 0.00 0.00 0.00
1.08 1.11 1.13 1.26 1.76 2.04 1.90 1.25 0.93 1.09 1.72 2.75 2.90 1.75 0.77 0.53 0.63 0.93 0.95 0.95 1.02 1.18 1.34 0.92 0.46 0.51 0.89 0.89 0.12 0.01 0.01 0.01 0.01 0.01 0.01 0.01 0.01 0.01 0.02 0.02 0.01 0.00 0.00 0.00
1.78 2.09 2.41 2.90 2.84 2.26 1.80 1.46 1.59 1.58 2.72 4.44 2.81 1.02 0.70 0.70 0.54 0.70 0.82 1.01 1.28 1.29 0.97 0.79 0.64 0.60 0.61 0.23 0.03 0.00 0.00 0.01 0.01 0.01 0.00 0.00 0.00 0.00 0.00 0.01 0.01 0.02 0.04 0.05
3.17 3.44 3.68 3.75 2.99 2.40 2.50 3.38 4.37 5.00 4.45 3.21 1.71 0.50 0.46 0.64 0.55 0.81 0.94 1.02 1.11 1.10 0.66 0.57 0.87 0.45 0.16 0.07 0.02 0.00 0.01 0.01 0.02 0.01 0.02 0.01 0.02 0.02 0.01 0.02 0.01 0.02 0.03 0.05
3.88 3.56 3.02 3.00 2.67 3.33 4.19 4.76 4.43 4.06 3.33 2.01 0.77 0.43 0.39 0.50 0.58 0.88 1.08 1.35 1.15 0.98 0.46 0.55 0.68 0.31 0.12 0.09 0.06 0.02 0.01 0.02 0.01 0.01 0.03 0.05 0.05 0.05 0.04 0.05 0.06 0.05 0.04 0.05
3.33 2.62 2.69 3.37 3.73 4.34 4.16 3.30 2.06 1.62 1.09 0.83 0.51 0.34 0.38 0.65 0.90 1.25 1.60 1.38 1.25 0.78 0.47 0.76 0.29 0.06 0.02 0.06 0.09 0.10 0.08 0.05 0.04 0.03 0.03 0.07 0.16 0.20 0.19 0.16 0.13 0.10 0.08 0.05
3.36 3.54 3.92 3.67 3.31 3.08 2.27 1.36 0.89 0.70 0.52 0.46 0.39 0.43 0.59 0.78 1.08 1.79 1.66 1.55 1.04 0.55 0.64 0.38 0.07 0.03 0.10 0.15 0.08 0.04 0.03 0.05 0.14 0.24 0.30 0.25 0.20 0.15 0.18 0.27 0.23 0.19 0.13 0.07
4.26 4.07 3.74 2.48 1.83 0.90 0.43 0.29 0.27 0.18 0.22 0.25 0.32 0.61 0.73 0.79 1.08 1.34 1.46 0.92 0.68 0.73 0.42 0.15 0.10 0.11 0.18 0.18 0.14 0.09 0.04 0.03 0.08 0.11 0.17 0.22 0.24 0.24 0.21 0.21 0.22 0.20 0.20 0.20
3.89 3.39 2.23 1.27 0.65 0.39 0.35 0.26 0.26 0.34 0.36 0.48 0.60 0.86 0.84 1.07 1.36 1.10 0.95 1.01 0.57 0.13 0.03 0.06 0.11 0.22 0.32 0.35 0.30 0.19 0.11 0.08 0.09 0.09 0.16 0.23 0.08 0.05 0.13 0.22 0.25 0.16 0.12 0.18
3.60 2.87 1.63 0.74 0.43 0.40 0.42 0.40 0.44 0.52 0.57 0.71 1.14 1.31 1.27 1.28 1.09 0.96 0.61 0.53 0.24 0.16 0.23 0.31 0.33 0.50 0.54 0.47 0.31 0.20 0.16 0.13 0.15 0.25 0.38 0.23 0.05 0.02 0.03 0.07 0.20 0.18 0.17 0.09
3.83 1.76 0.78 0.56 0.49 0.55 0.61 0.56 0.57 0.59 0.84 0.99 1.50 1.68 0.93 0.74 0.82 0.33 0.13 0.12 0.09 0.24 0.40 0.45 0.43 0.44 0.35 0.23 0.18 0.16 0.14 0.12 0.08 0.09 0.17 0.19 0.12 0.04 0.02 0.03 0.02 0.02 0.03 0.07